Yakima, WA

4:25 PM PDT on March 25, 2017 (GMT -0700)
Yakima Air Term-McAllister

Weather History for KYKM - July, 2012

Change the Weather History Date:

Sunday, July 22, 2012

  Actual Average Record
Temperature  
Mean Temperature 72 °F 72 °F  
Max Temperature 89 °F 90 °F 103 °F (2003)
Min Temperature 55 °F 54 °F 41 °F (1973)
Degree Days  
Heating Degree Days 0 0  
Month to date heating degree days 8 19  
Since 1 June heating degree days 120 117  
Since 1 July heating degree days 8 19  
Cooling Degree Days 7 7  
Month to date cooling degree days 229 127  
Year to date cooling degree days 307 212  
Since 1 June cooling degree days 283 192  
Growing Degree Days 22 (Base 50)    
Moisture  
Dew Point 45 °F    
Average Humidity 49    
Maximum Humidity 77    
Minimum Humidity 20    
Precipitation  
Precipitation 0.00 in 0.01 in 0.12 in (2005)
Month to date precipitation 0.04 0.17  
Year to date precipitation 5.26 4.46  
Snow  
Snow 0.00 in 0.00 in 0.00 in (2002)
Month to date snowfall 0.0 0.0  
Year to date snowfall 21.5 8.6  
Since 1 July snowfall 0.0 0.0  
Snow Depth 0.00 in    
Sea Level Pressure  
Sea Level Pressure 29.93 in    
Wind  
Wind Speed 11 mph (West)    
Max Wind Speed 28 mph    
Max Gust Speed 35 mph    
Visibility 10 miles    
Events      
T = Trace of Precipitation, MM = Missing Value Source: NWS Daily Summary

Daily Weather History Graph

Daily Weather History Graph

Search for Another Location

Airport or City:

Trip Planner

Search our weather history database for the weather conditions in past years. The results will help you decide how hot, cold, wet, or windy it might be!

Date:

Astronomy

Jul. 22, 2012 Rise Set
Actual Time 5:31 AM PDT 8:44 PM PDT
Civil Twilight 4:55 AM PDT 9:21 PM PDT
Nautical Twilight 4:07 AM PDT 10:08 PM PDT
Astronomical Twilight 3:08 AM PDT 11:06 PM PDT
Moon 9:41 AM PDT (7/22) 10:09 PM PDT (7/22)
Length of Visible Light 16h 25m
Length of Day
15h 12m
Waxing Crescent, 14% of the Moon is Illuminated
Jul 22
Waxing Crescent
Jul 26
First Quarter
Aug 1
Full
Aug 9
Last Quarter
Aug 17
New

Hourly Weather History & Observations

Time (PDT) Temp. Dew Point Humidity Pressure Visibility Wind Dir Wind Speed Gust Speed Precip Events Conditions
12:53 AM 66.0 °F 52.0 °F 60% 29.97 in 10.0 mi WSW 4.6 mph - N/A   Clear
1:53 AM 64.0 °F 52.0 °F 65% 29.97 in 10.0 mi West 9.2 mph - N/A   Clear
2:53 AM 59.0 °F 50.0 °F 72% 29.96 in 10.0 mi West 10.4 mph - N/A   Clear
3:53 AM 57.9 °F 48.9 °F 72% 29.97 in 10.0 mi West 9.2 mph - N/A   Clear
4:53 AM 59.0 °F 48.9 °F 69% 29.97 in 10.0 mi West 8.1 mph - N/A   Clear
5:53 AM 57.0 °F 48.9 °F 74% 29.98 in 10.0 mi WSW 6.9 mph - N/A   Clear
6:53 AM 57.9 °F 50.0 °F 75% 29.97 in 10.0 mi West 6.9 mph - N/A   Clear
7:53 AM 66.9 °F 51.1 °F 57% 29.96 in 10.0 mi West 3.5 mph - N/A   Clear
8:53 AM 70.0 °F 51.1 °F 51% 29.95 in 10.0 mi WNW 4.6 mph - N/A   Clear
9:53 AM 73.9 °F 50.0 °F 43% 29.94 in 10.0 mi Variable 3.5 mph - N/A   Clear
10:53 AM 79.0 °F 46.0 °F 31% 29.91 in 10.0 mi Calm Calm - N/A   Clear
11:53 AM 81.0 °F 46.0 °F 29% 29.89 in 10.0 mi ENE 3.5 mph - N/A   Clear
12:53 PM 84.9 °F 43.0 °F 23% 29.86 in 10.0 mi Variable 5.8 mph - N/A   Partly Cloudy
1:53 PM 87.1 °F 42.1 °F 21% 29.85 in 10.0 mi South 11.5 mph 20.7 mph N/A   Partly Cloudy
2:53 PM 87.1 °F 41.0 °F 20% 29.84 in 10.0 mi South 20.7 mph 27.6 mph N/A   Partly Cloudy
3:53 PM 88.0 °F 41.0 °F 19% 29.82 in 10.0 mi South 16.1 mph - N/A   Partly Cloudy
4:53 PM 86.0 °F 44.1 °F 23% 29.83 in 10.0 mi WSW 10.4 mph 18.4 mph N/A   Clear
5:53 PM 80.1 °F 42.1 °F 26% 29.85 in 10.0 mi WNW 19.6 mph 28.8 mph N/A   Clear
6:53 PM 73.9 °F 39.0 °F 28% 29.90 in 10.0 mi West 21.9 mph 31.1 mph N/A   Clear
7:53 PM 69.1 °F 37.9 °F 32% 29.92 in 10.0 mi West 19.6 mph 29.9 mph N/A   Clear
8:53 PM 64.9 °F 37.9 °F 37% 29.96 in 10.0 mi WNW 13.8 mph - N/A   Clear
9:53 PM 63.0 °F 39.9 °F 43% 29.99 in 10.0 mi WNW 17.3 mph 24.2 mph N/A   Clear
10:53 PM 61.0 °F 39.0 °F 44% 30.00 in 10.0 mi WNW 16.1 mph 26.5 mph N/A   Clear
11:53 PM 62.1 °F 37.0 °F 39% 30.00 in 10.0 mi WNW 18.4 mph 31.1 mph N/A   Clear